map of HKT home
Great Circle Mapper logo
HKT - Airport
Location
City:  Phuket, Thailand
Name:Phuket International Airport
ICAO / IATA:VTSP / HKT

Details
Type:Airport (Aerodrome, Airfield)
Use:Public/Civil, International (customs port of entry)
Latitude:806'48"N (8.113200)
Longitude:9819'01"E (98.316872)
Datum:WGS 1984
Elevation:82 ft (25 m)
Variation:0.49W (WMM2015 magnetic declination)
0.02 annual change
Runways:1
Longest:9843 × 148 ft (3000 × 45 m), paved

Time
Time Zone:UTC+7
Local Time:

Weather
METAR:VTSP 280300Z 08008KT 9999 FEW018 BKN300 30/24 Q1013 A2991 NOSIG
TAF:VTSP 270500Z 2706/2812 25010KT 9999 FEW020 BKN300 PROB30
TEMPO 2706/2710 VRB08G18KT 4000 TSRA/SHRA FEW016CB SCT020 BKN100
BECMG 2713/2715 00000KT
BECMG 2802/2804 30004KT

Related Locations
Nearby:
Farthest:SPYO: 12295 mi / 19787 km
Pacasmayo [Pacasmayo Airport], LAL, PE

Find:

   beyond  
but within

Other Information
Maps:
NOTAMs:
Links:
Sources:

  
flag of Thailand   

Sectional Chart

Flight Planning
at skyvector.com

Satellite Image

Google Maps Satellite view

 

Copyright © 2004-2015 Karl L. Swartz. All rights reserved.
The Great Circle Mapper name and logo are trademarks of the Great Circle Mapper.
All other trademarks mentioned herein belong to their respective owners.
Please see credits for attibutions and further copyright information.

  Follow gcmap on Facebook Follow gcmap on Twitter Follow gcmap on Google+

hCard Microformat

Geo Microformat